FW3644 Weather Reports


Display with metric or nautical units.
time (UTC)temp
F
wind
direction
speed
MPH
gust
MPH
rain 1hr
in
rain 24hr
in
rain mn
in
humidity
%
barometer
mb
20200528131706 58 354 3.0 0.0 0.00 0.00 0.00 76 1022.0
20200528130804 56 348 5.0 0.0 0.00 0.00 0.00 78 1021.7
20200528125806 55 340 4.0 0.0 0.00 0.00 0.00 78 1021.7
20200528124905 53 339 6.0 0.0 0.00 0.00 0.00 81 1021.7
20200528123906 51 329 5.0 0.0 0.00 0.00 0.00 84 1021.3
20200528122908 50 345 4.0 0.0 0.00 0.00 0.00 84 1021.3
20200528122006 50 348 4.0 0.0 0.00 0.00 0.00 84 1020.9
20200528121006 50 2 3.0 0.0 0.00 0.00 0.00 84 1020.9
20200528120104 50 354 3.0 0.0 0.00 0.00 0.00 85 1020.9
20200528115106 50 1 5.0 0.0 0.00 0.00 0.00 85 1020.9
20200528114205 50 346 4.0 0.0 0.00 0.00 0.00 86 1020.9
20200528113206 50 354 3.0 0.0 0.00 0.00 0.00 86 1020.6
20200528112306 50 347 4.0 0.0 0.00 0.00 0.00 85 1020.6
20200528111307 51 348 4.0 0.0 0.00 0.00 0.00 83 1020.6
20200528110304 52 350 5.0 0.0 0.00 0.00 0.00 81 1020.2
20200528105307 52 3 4.0 0.0 0.00 0.00 0.00 82 1020.2
20200528104405 52 9 6.0 0.0 0.00 0.00 0.00 82 1020.2
20200528103407 52 356 5.0 0.0 0.00 0.00 0.00 82 1020.2
20200528102507 52 349 6.0 0.0 0.00 0.00 0.00 83 1020.2
20200528101606 52 337 6.0 0.0 0.00 0.00 0.00 81 1020.2
20200528100606 54 15 5.0 0.0 0.00 0.00 0.00 77 1020.6
20200528095709 55 340 7.0 0.0 0.00 0.00 0.00 74 1020.2
20200528094805 56 343 7.0 0.0 0.00 0.00 0.00 75 1020.2
20200528093905 55 324 4.0 0.0 0.00 0.00 0.00 78 1020.2
20200528092908 54 313 5.0 0.0 0.00 0.00 0.00 80 1020.2
20200528092007 54 307 6.0 0.0 0.00 0.00 0.00 80 1020.6
20200528091105 54 299 7.0 0.0 0.00 0.00 0.00 80 1020.6
20200528090104 54 295 6.0 0.0 0.00 0.00 0.00 80 1020.6
20200528085107 54 308 6.0 0.0 0.00 0.00 0.00 81 1020.2
20200528084108 54 299 8.0 0.0 0.00 0.00 0.00 81 1020.6
20200528083207 54 292 7.0 0.0 0.00 0.00 0.00 82 1020.2
20200528082305 54 294 7.0 0.0 0.00 0.00 0.00 80 1019.8
20200528081307 55 316 5.0 0.0 0.00 0.00 0.00 80 1019.8
20200528080305 54 337 2.0 0.0 0.00 0.00 0.00 79 1019.8
20200528075404 55 337 1.0 0.0 0.00 0.00 0.00 80 1019.8
20200528074406 55 337 3.0 0.0 0.00 0.00 0.00 80 1019.8
20200528073405 55 344 1.0 0.0 0.00 0.00 0.00 80 1019.8
20200528072407 55 337 2.0 0.0 0.00 0.00 0.00 79 1019.8
20200528071507 55 296 3.0 0.0 0.00 0.00 0.00 80 1019.8
20200528070603 55 296 4.0 0.0 0.00 0.00 0.00 80 1019.8
20200528065703 55 316 5.0 0.0 0.00 0.00 0.00 80 1019.8
20200528064706 55 337 2.0 0.0 0.00 0.00 0.00 77 1019.8
20200528063805 55 337 2.0 0.0 0.00 0.00 0.00 77 1019.8
20200528062906 56 308 2.0 0.0 0.00 0.00 0.00 77 1019.8
20200528061907 56 360 1.0 0.0 0.00 0.00 0.00 76 1019.8
20200528060904 56 337 1.0 0.0 0.00 0.00 0.00 74 1019.8
20200528055907 57 360 0.0 0.0 0.00 0.00 0.00 74 1019.8
20200528055004 57 337 2.0 0.0 0.00 0.00 0.00 74 1019.5
20200528054007 57 22 1.0 0.0 0.00 0.00 0.00 73 1019.5
20200528053006 58 19 2.0 0.0 0.00 0.00 0.00 71 1019.1
20200528052006 58 45 2.0 0.0 0.00 0.00 0.00 71 1019.1
20200528051104 58 22 3.0 0.0 0.00 0.00 0.00 71 1019.1
20200528050105 58 22 2.0 0.0 0.00 0.00 0.00 71 1019.1
20200528045106 58 33 3.0 0.0 0.00 0.00 0.00 70 1019.1
20200528044106 58 22 2.0 0.0 0.00 0.00 0.00 70 1018.7
20200528043206 58 22 2.0 0.0 0.00 0.00 0.00 68 1019.1
20200528042207 59 22 2.0 0.0 0.00 0.00 0.00 68 1018.7
20200528040305 59 5 3.0 0.0 0.00 0.00 0.00 65 1018.7
20200528035405 60 22 2.0 0.0 0.00 0.00 0.00 64 1018.7
20200528034405 61 22 2.0 0.0 0.00 0.00 0.00 63 1018.7
20200528033505 61 22 2.0 0.0 0.00 0.00 0.00 61 1018.4
20200528032605 62 18 2.0 0.0 0.00 0.00 0.00 61 1018.7
20200528031607 62 23 4.0 0.0 0.00 0.00 0.00 61 1018.4
20200528030703 62 24 3.0 0.0 0.00 0.00 0.00 63 1018.4
20200528025706 63 30 2.0 0.0 0.00 0.00 0.00 62 1018.0
20200528024806 63 22 3.0 0.0 0.00 0.00 0.00 61 1018.0
20200528023904 64 22 3.0 0.0 0.00 0.00 0.00 59 1018.0
20200528022907 64 31 3.0 0.0 0.00 0.00 0.00 58 1017.6
20200528021907 65 45 3.0 0.0 0.00 0.00 0.00 56 1017.6
20200528021007 66 22 3.0 0.0 0.00 0.00 0.00 53 1017.6
20200528020006 67 32 3.0 0.0 0.00 0.00 0.00 51 1017.6
20200528015004 68 38 5.0 0.0 0.00 0.00 0.00 49 1017.6
20200528014005 69 26 4.0 0.0 0.00 0.00 0.00 48 1017.6
20200528013006 69 24 5.0 0.0 0.00 0.00 0.00 46 1017.6
20200528012105 70 28 4.0 0.0 0.00 0.00 0.00 44 1017.6
20200528011204 71 22 5.0 0.0 0.00 0.00 0.00 44 1017.3
20200528010304 72 21 8.0 0.0 0.00 0.00 0.00 42 1017.3
20200528005307 71 7 5.0 0.0 0.00 0.00 0.00 41 1017.3
20200528004305 71 12 5.0 0.0 0.00 0.00 0.00 40 1017.3
20200528003405 72 13 4.0 0.0 0.00 0.00 0.00 39 1017.3
20200528002406 73 5 7.0 0.0 0.00 0.00 0.00 36 1016.9
20200528001504 73 353 8.0 0.0 0.00 0.00 0.00 37 1017.3
20200528000506 74 19 4.0 0.0 0.00 0.00 0.00 37 1016.9
20200527235507 75 355 7.0 0.0 0.00 0.00 0.00 34 1016.9
20200527234605 75 359 10.0 0.0 0.00 0.00 0.00 34 1016.9
20200527233606 75 4 9.0 0.0 0.00 0.00 0.00 36 1016.9
20200527232607 76 18 6.0 0.0 0.00 0.00 0.00 35 1016.9
20200527231705 75 16 9.0 0.0 0.00 0.00 0.00 34 1017.3
20200527230706 75 31 11.0 0.0 0.00 0.00 0.00 36 1016.9
20200527225805 75 11 5.0 0.0 0.00 0.00 0.00 34 1016.9
20200527224806 76 9 8.0 0.0 0.00 0.00 0.00 34 1016.9
20200527223904 75 346 10.0 0.0 0.00 0.00 0.00 34 1016.9
20200527222905 76 24 8.0 0.0 0.00 0.00 0.00 32 1016.9
20200527222005 76 5 7.0 0.0 0.00 0.00 0.00 31 1016.9
20200527221104 76 359 8.0 0.0 0.00 0.00 0.00 31 1017.3
20200527220105 76 16 7.0 0.0 0.00 0.00 0.00 34 1016.9
20200527215205 75 9 8.0 0.0 0.00 0.00 0.00 33 1017.3
20200527214304 75 16 11.0 0.0 0.00 0.00 0.00 34 1017.3
20200527213305 76 343 8.0 0.0 0.00 0.00 0.00 35 1017.3
20200527212305 74 357 8.0 0.0 0.00 0.00 0.00 36 1017.3
20200527211404 75 21 9.0 0.0 0.00 0.00 0.00 37 1017.3
20200527210504 75 7 8.0 0.0 0.00 0.00 0.00 37 1017.3
20200527205506 75 16 11.0 0.0 0.00 0.00 0.00 37 1017.3
20200527204503 75 19 7.0 0.0 0.00 0.00 0.00 37 1017.3
20200527203506 75 12 7.0 0.0 0.00 0.00 0.00 37 1017.3
20200527202506 74 359 10.0 0.0 0.00 0.00 0.00 37 1017.3
20200527201605 74 5 8.0 0.0 0.00 0.00 0.00 37 1017.3
20200527200605 74 2 11.0 0.0 0.00 0.00 0.00 35 1017.3
20200527195607 74 13 7.0 0.0 0.00 0.00 0.00 36 1017.3
20200527194605 74 350 10.0 0.0 0.00 0.00 0.00 38 1017.6
20200527193704 74 39 12.0 0.0 0.00 0.00 0.00 38 1017.6
20200527192707 73 345 10.0 0.0 0.00 0.00 0.00 39 1018.0
20200527191707 73 24 10.0 0.0 0.00 0.00 0.00 41 1018.0
20200527190805 73 352 7.0 0.0 0.00 0.00 0.00 42 1018.0
20200527185806 73 7 6.0 0.0 0.00 0.00 0.00 42 1018.0
20200527184804 72 21 9.0 0.0 0.00 0.00 0.00 42 1018.0
20200527183903 71 21 10.0 0.0 0.00 0.00 0.00 41 1018.0
20200527182906 71 40 9.0 0.0 0.00 0.00 0.00 41 1018.0
20200527182006 71 13 8.0 0.0 0.00 0.00 0.00 41 1018.4
20200527181005 72 11 9.0 0.0 0.00 0.00 0.00 39 1018.4
20200527180005 73 12 7.0 0.0 0.00 0.00 0.00 40 1018.4
20200527175106 72 344 9.0 0.0 0.00 0.00 0.00 40 1018.0
20200527174203 73 34 10.0 0.0 0.00 0.00 0.00 39 1018.4
20200527173206 72 10 8.0 0.0 0.00 0.00 0.00 39 1018.4
20200527172206 73 21 9.0 0.0 0.00 0.00 0.00 40 1018.4
20200527171303 73 12 6.0 0.0 0.00 0.00 0.00 40 1018.4
20200527170305 74 13 8.0 0.0 0.00 0.00 0.00 40 1018.4
20200527165403 74 359 8.0 0.0 0.00 0.00 0.00 42 1018.4
20200527164406 73 340 10.0 0.0 0.00 0.00 0.00 41 1018.0
20200527163407 74 25 8.0 0.0 0.00 0.00 0.00 40 1018.0
20200527162505 74 360 5.0 0.0 0.00 0.00 0.00 42 1018.0
20200527161603 73 353 5.0 0.0 0.00 0.00 0.00 42 1018.0
20200527160603 72 13 2.0 0.0 0.00 0.00 0.00 46 1018.4
20200527155703 71 355 2.0 0.0 0.00 0.00 0.00 46 1018.0
20200527154720 70 4 1.0 0.0 0.00 0.00 0.00 48 1018.0
20200527153805 69 310 6.0 0.0 0.00 0.00 0.00 48 1018.0
20200527152805 68 315 4.0 0.0 0.00 0.00 0.00 50 1018.0
20200527151905 68 335 3.0 0.0 0.00 0.00 0.00 51 1018.4
20200527151004 67 354 3.0 0.0 0.00 0.00 0.00 54 1018.4
20200527150006 67 326 4.0 0.0 0.00 0.00 0.00 55 1018.4
20200527145106 66 341 4.0 0.0 0.00 0.00 0.00 57 1018.7
20200527144103 65 345 4.0 0.0 0.00 0.00 0.00 58 1018.7
20200527143204 66 344 4.0 0.0 0.00 0.00 0.00 57 1018.4
20200527142206 65 20 2.0 0.0 0.00 0.00 0.00 60 1018.4
20200527141303 63 358 4.0 0.0 0.00 0.00 0.00 62 1018.4
20200527140305 62 316 5.0 0.0 0.00 0.00 0.00 65 1018.4
20200527135403 60 329 4.0 0.0 0.00 0.00 0.00 68 1018.4
20200527134423 59 310 5.0 0.0 0.00 0.00 0.00 72 1018.4
20200527133425 58 325 4.0 0.0 0.00 0.00 0.00 73 1018.0
20200527132425 57 312 6.0 0.0 0.00 0.00 0.00 74 1018.0